CDT,Max TemperatureF,Mean TemperatureF,Min TemperatureF,Max Dew PointF,MeanDew PointF,Min DewpointF,Max Humidity, Mean Humidity, Min Humidity, Max Sea Level PressureIn, Mean Sea Level PressureIn, Min Sea Level PressureIn, Max VisibilityMiles, Mean VisibilityMiles, Min VisibilityMiles, Max Wind SpeedMPH, Mean Wind SpeedMPH, Max Gust SpeedMPH,PrecipitationIn, CloudCover, Events, WindDirDegrees
2013-3-1,55,46,36,33,30,27,89,60,37,30.14,30.09,30.02,10,10,10,10,4,21,0.00,2,,341
2013-3-2,45,39,33,28,25,22,75,58,42,30.19,30.14,30.10,10,10,10,13,4,21,0.00,6,,325
2013-3-3,51,42,30,30,23,18,85,57,27,30.23,30.18,30.13,10,10,10,12,6,18,0.00,3,,331
2013-3-4,66,48,30,47,35,25,88,63,26,30.21,30.12,30.03,10,10,9,16,5,22,0.00,0,,175
2013-3-5,73,57,39,59,50,36,89,73,53,30.14,30.01,29.89,10,9,1,17,6,29,0.16,6,Rain-Thunderstorm,265
2013-3-6,54,45,35,36,28,24,85,54,35,30.29,30.22,30.14,10,10,10,14,8,26,0.00,0,,331
2013-3-7,64,47,30,37,31,27,89,61,27,30.35,30.28,30.23,10,10,8,9,2,,0.00,0,,352
2013-3-8,73,52,32,41,33,24,89,59,17,30.34,30.26,30.21,10,9,5,7,1,,0.00,0,,24
2013-3-9,73,58,42,45,40,35,86,51,24,30.26,30.18,30.10,10,9,6,14,4,,0.00,2,Rain,152
2013-3-10,75,64,52,56,51,38,84,62,46,30.12,30.06,29.97,10,10,10,22,10,32,0.00,4,,154
2013-3-11,68,56,44,63,52,40,94,87,77,29.98,29.91,29.86,10,7,0,17,8,99,1.12,7,Fog-Rain,329
2013-3-12,63,50,37,40,35,29,86,62,31,30.19,30.10,29.98,10,10,10,14,7,23,0.01,0,,339
2013-3-13,64,50,36,37,29,19,89,52,19,30.34,30.28,30.20,10,10,9,14,4,23,0.00,0,,333
2013-3-14,64,50,36,38,26,18,86,46,17,30.46,30.36,30.29,10,10,10,9,5,,0.00,0,,355
2013-3-15,77,55,35,43,38,31,89,56,26,30.31,30.22,30.12,10,10,5,13,4,18,0.00,0,,224
2013-3-16,79,60,43,51,47,40,89,62,34,30.13,30.07,29.98,10,10,7,15,6,24,0.00,0,,211
2013-3-17,75,62,48,61,54,46,97,81,53,30.05,29.99,29.93,10,6,0,14,2,,0.01,3,Fog,169
2013-3-18,82,70,59,66,60,54,94,77,54,29.96,29.90,29.80,10,9,2,16,8,23,0.15,6,Rain-Thunderstorm,176
2013-3-19,77,64,54,57,49,34,90,69,24,30.08,30.01,29.85,10,9,2,21,8,22,0.28,4,Rain-Thunderstorm,9
2013-3-20,64,53,42,37,31,26,80,43,26,30.14,30.06,30.01,10,10,10,12,5,17,0.00,0,,11
2013-3-21,64,50,37,39,27,21,89,44,21,30.08,30.01,29.94,10,9,3,10,3,17,0.00,2,,346
2013-3-22,57,52,46,41,35,27,66,52,42,30.01,29.96,29.93,10,10,10,12,5,17,0.00,7,Rain,82
2013-3-23,69,60,51,61,55,41,94,81,62,29.94,29.79,29.64,10,6,0,9,4,,1.39,8,Fog-Rain-Thunderstorm,81
2013-3-24,79,62,46,64,53,30,94,75,43,29.92,29.65,29.55,10,8,0,15,5,29,0.06,6,Fog-Rain,294
2013-3-25,57,47,37,29,24,17,67,44,22,30.23,30.07,29.94,10,10,10,15,7,25,0.00,1,,313
2013-3-26,54,43,33,29,25,22,82,53,31,30.38,30.30,30.23,10,10,10,13,4,23,0.00,0,,344
2013-3-27,63,45,28,35,28,23,89,59,24,30.45,30.37,30.30,10,10,10,6,1,,0.00,0,,349
2013-3-28,72,52,32,40,31,24,89,54,17,30.38,30.32,30.25,10,10,7,9,1,,0.00,0,,320
2013-3-29,75,56,37,50,38,33,89,56,21,30.35,30.28,30.19,10,10,6,13,3,21,0.00,1,,191
2013-3-30,79,62,46,55,49,44,93,71,37,30.22,30.16,30.06,10,7,1,15,3,23,0.00,2,,198
2013-3-31,81,66,51,63,56,48,94,79,47,30.08,29.99,29.89,10,6,0,13,2,17,0.34,5,Fog-Rain-Thunderstorm,225